• In Deutschland
  • Länderverzeichnis
  • Für 7 Tage
  • Wassertemperatur
  • Satellitenkarten
  • Wetterkarte
  • Widgets
  • user-avatar
    Anmelden

    Stündliche Wetter Bayreuth

    Heute, 26 September, Mittwoch

    Zeit Temperatur Niederschläge Wind Luftdruck Luftfeuchtigkeit
    00:00 +5°C° 0 mm 1 m/S 747 mmHg 75%
    01:00 +5°C° 0 mm 1 m/S 747 mmHg 76%
    02:00 +5°C° 0 mm 1 m/S 746 mmHg 76%
    03:00 +4°C° 0 mm 1 m/S 746 mmHg 77%
    04:00 +4°C° 0 mm 1 m/S 746 mmHg 77%
    05:00 +4°C° 0 mm 1 m/S 746 mmHg 76%
    06:00 +4°C° 0 mm 1 m/S 745 mmHg 74%
    07:00 +5°C° 0 mm 1 m/S 745 mmHg 73%
    08:00 +7°C° 0 mm 1 m/S 745 mmHg 63%
    09:00 +9°C° 0 mm 2 m/S 745 mmHg 54%
    10:00 +13°C° 0 mm 2 m/S 745 mmHg 45%
    11:00 +14°C° 0 mm 2 m/S 745 mmHg 41%
    12:00 +15°C° 0 mm 2 m/S 745 mmHg 37%
    13:00 +17°C° 0 mm 2 m/S 744 mmHg 34%
    14:00 +17°C° 0 mm 2 m/S 744 mmHg 36%
    15:00 +17°C° 0 mm 2 m/S 744 mmHg 37%
    16:00 +17°C° 0 mm 2 m/S 743 mmHg 39%
    17:00 +15°C° 0 mm 1 m/S 743 mmHg 46%
    18:00 +13°C° 0 mm 1 m/S 743 mmHg 53%
    19:00 +10°C° 0 mm 1 m/S 743 mmHg 59%
    20:00 +10°C° 0 mm 1 m/S 743 mmHg 60%
    21:00 +10°C° 0 mm 1 m/S 743 mmHg 61%
    22:00 +9°C° 0 mm 1 m/S 744 mmHg 62%
    23:00 +9°C° 0 mm 1 m/S 743 mmHg 63%

    Morgen, 27 September, Donnerstag

    Zeit Temperatur Niederschläge Wind Luftdruck Luftfeuchtigkeit
    00:00 +9°C° 0 mm 1 m/S 743 mmHg 65%
    01:00 +9°C° 0 mm 1 m/S 743 mmHg 66%
    02:00 +8°C° 0 mm 1 m/S 743 mmHg 67%
    03:00 +8°C° 0 mm 1 m/S 743 mmHg 68%
    04:00 +8°C° 0 mm 1 m/S 743 mmHg 69%
    05:00 +8°C° 0 mm 1 m/S 743 mmHg 69%
    06:00 +8°C° 0 mm 1 m/S 742 mmHg 69%
    07:00 +9°C° 0 mm 1 m/S 742 mmHg 68%
    08:00 +11°C° 0 mm 1 m/S 742 mmHg 61%
    09:00 +14°C° 0 mm 1 m/S 742 mmHg 53%
    10:00 +18°C° 0 mm 1 m/S 742 mmHg 45%
    11:00 +18°C° 0 mm 2 m/S 742 mmHg 42%
    12:00 +20°C° 0 mm 2 m/S 741 mmHg 38%
    13:00 +21°C° 0 mm 2 m/S 741 mmHg 35%
    14:00 +21°C° 0 mm 2 m/S 740 mmHg 37%
    15:00 +21°C° 0 mm 2 m/S 739 mmHg 39%
    16:00 +21°C° 0 mm 2 m/S 739 mmHg 41%
    17:00 +18°C° 0 mm 2 m/S 738 mmHg 48%
    18:00 +16°C° 0 mm 1 m/S 738 mmHg 55%
    19:00 +14°C° 0 mm 1 m/S 737 mmHg 62%
    20:00 +13°C° 0 mm 1 m/S 737 mmHg 65%
    21:00 +12°C° 0 mm 1 m/S 737 mmHg 68%
    22:00 +12°C° 0 mm 1 m/S 737 mmHg 71%
    23:00 +11°C° 0 mm 1 m/S 737 mmHg 74%

    übermorgen, 28 September, Freitag

    Zeit Temperatur Niederschläge Wind Luftdruck Luftfeuchtigkeit
    00:00 +11°C° 0 mm 1 m/S 736 mmHg 76%
    01:00 +10°C° 0 mm 1 m/S 736 mmHg 79%
    02:00 +10°C° 0 mm 1 m/S 736 mmHg 80%
    03:00 +10°C° 0 mm 1 m/S 736 mmHg 82%
    04:00 +9°C° 0 mm 1 m/S 735 mmHg 83%
    05:00 +9°C° 0 mm 1 m/S 735 mmHg 83%
    06:00 +8°C° 0 mm 0 m/S 735 mmHg 83%
    07:00 +8°C° 0 mm 0 m/S 736 mmHg 83%
    08:00 +12°C° 0 mm 1 m/S 736 mmHg 74%
    09:00 +14°C° 0 mm 1 m/S 736 mmHg 66%
    10:00 +18°C° 0 mm 1 m/S 736 mmHg 57%
    11:00 +18°C° 0 mm 1 m/S 736 mmHg 55%
    12:00 +18°C° 0 mm 2 m/S 736 mmHg 52%
    13:00 +19°C° 0 mm 2 m/S 736 mmHg 50%
    14:00 +18°C° 0 mm 2 m/S 735 mmHg 54%
    15:00 +17°C° 0 mm 3 m/S 735 mmHg 59%
    16:00 +16°C° 0 mm 3 m/S 735 mmHg 64%
    17:00 +14°C° 0 mm 3 m/S 735 mmHg 72%
    18:00 +12°C° 0 mm 3 m/S 735 mmHg 80%
    19:00 +10°C° 0 mm 3 m/S 735 mmHg 88%
    20:00 +9°C° 0 mm 2 m/S 736 mmHg 88%
    21:00 +9°C° 0 mm 2 m/S 736 mmHg 88%
    22:00 +8°C° 0 mm 2 m/S 737 mmHg 88%
    23:00 +8°C° 0 mm 2 m/S 737 mmHg 84%

    29 September, Samstag

    Zeit Temperatur Niederschläge Wind Luftdruck Luftfeuchtigkeit
    00:00 +8°C° 0 mm 2 m/S 737 mmHg 80%
    01:00 +8°C° 0 mm 2 m/S 737 mmHg 76%
    02:00 +7°C° 0 mm 2 m/S 737 mmHg 80%
    03:00 +6°C° 0 mm 2 m/S 738 mmHg 83%
    04:00 +5°C° 0 mm 2 m/S 738 mmHg 87%
    05:00 +5°C° 0 mm 2 m/S 738 mmHg 86%
    06:00 +5°C° 0 mm 2 m/S 739 mmHg 86%
    07:00 +5°C° 0 mm 2 m/S 739 mmHg 85%
    08:00 +7°C° 0 mm 2 m/S 739 mmHg 75%
    09:00 +8°C° 0 mm 3 m/S 740 mmHg 65%
    10:00 +10°C° 0 mm 3 m/S 740 mmHg 55%
    11:00 +11°C° 0 mm 3 m/S 740 mmHg 52%
    12:00 +12°C° 0 mm 3 m/S 740 mmHg 48%
    13:00 +13°C° 0 mm 3 m/S 740 mmHg 45%
    14:00 +12°C° 0 mm 3 m/S 740 mmHg 46%
    15:00 +12°C° 0 mm 3 m/S 740 mmHg 47%
    16:00 +12°C° 0 mm 3 m/S 739 mmHg 48%
    17:00 +10°C° 0 mm 2 m/S 740 mmHg 55%
    18:00 +9°C° 0 mm 2 m/S 740 mmHg 63%
    19:00 +7°C° 0 mm 2 m/S 740 mmHg 70%
    20:00 +6°C° 0 mm 2 m/S 740 mmHg 72%
    21:00 +6°C° 0 mm 2 m/S 740 mmHg 75%
    22:00 +5°C° 0 mm 2 m/S 740 mmHg 77%
    23:00 +6°C° 0 mm 1 m/S 740 mmHg 77%

    30 September, Sonntag

    Zeit Temperatur Niederschläge Wind Luftdruck Luftfeuchtigkeit
    00:00 +5°C° 0 mm 1 m/S 739 mmHg 78%
    01:00 +5°C° 0 mm 1 m/S 739 mmHg 78%
    02:00 +5°C° 0 mm 1 m/S 739 mmHg 79%
    03:00 +5°C° 0 mm 1 m/S 738 mmHg 80%
    04:00 +5°C° 0 mm 1 m/S 738 mmHg 80%
    05:00 +5°C° 0 mm 1 m/S 738 mmHg 80%
    06:00 +5°C° 0 mm 1 m/S 738 mmHg 80%
    07:00 +5°C° 0 mm 1 m/S 738 mmHg 79%
    08:00 +6°C° 0 mm 2 m/S 738 mmHg 69%
    09:00 +9°C° 0 mm 2 m/S 738 mmHg 59%
    10:00 +12°C° 0 mm 2 m/S 738 mmHg 49%
    11:00 +13°C° 0 mm 2 m/S 737 mmHg 45%
    12:00 +15°C° 0 mm 2 m/S 736 mmHg 41%
    13:00 +16°C° 0 mm 2 m/S 736 mmHg 37%
    14:00 +16°C° 0 mm 2 m/S 735 mmHg 38%
    15:00 +16°C° 0 mm 2 m/S 735 mmHg 40%
    16:00 +16°C° 0 mm 2 m/S 734 mmHg 41%
    17:00 +13°C° 0 mm 2 m/S 734 mmHg 50%
    18:00 +10°C° 0 mm 2 m/S 734 mmHg 58%
    19:00 +9°C° 0 mm 1 m/S 733 mmHg 66%
    20:00 +9°C° 0 mm 1 m/S 733 mmHg 69%
    21:00 +8°C° 0 mm 1 m/S 733 mmHg 71%
    22:00 +7°C° 0 mm 1 m/S 733 mmHg 74%
    23:00 +7°C° 0 mm 1 m/S 732 mmHg 74%

    1 Oktober, Montag

    Zeit Temperatur Niederschläge Wind Luftdruck Luftfeuchtigkeit
    00:00 +7°C° 0 mm 1 m/S 732 mmHg 75%
    01:00 +6°C° 0 mm 1 m/S 731 mmHg 76%
    02:00 +6°C° 0 mm 1 m/S 731 mmHg 77%
    03:00 +5°C° 0 mm 0 m/S 731 mmHg 77%
    04:00 +4°C° 0 mm 0 m/S 730 mmHg 78%
    05:00 +4°C° 0 mm 0 m/S 730 mmHg 77%
    06:00 +4°C° 0 mm 0 m/S 730 mmHg 77%
    07:00 +6°C° 0 mm 1 m/S 730 mmHg 77%
    08:00 +8°C° 0 mm 1 m/S 729 mmHg 68%
    09:00 +11°C° 0 mm 1 m/S 729 mmHg 60%
    10:00 +13°C° 0 mm 1 m/S 729 mmHg 51%
    11:00 +14°C° 0 mm 1 m/S 729 mmHg 48%
    12:00 +15°C° 0 mm 2 m/S 728 mmHg 44%
    13:00 +16°C° 0 mm 2 m/S 727 mmHg 41%
    14:00 +16°C° 0 mm 2 m/S 727 mmHg 42%
    15:00 +16°C° 0 mm 2 m/S 727 mmHg 43%
    16:00 +16°C° 0 mm 2 m/S 726 mmHg 45%
    17:00 +14°C° 0 mm 2 m/S 726 mmHg 51%
    18:00 +12°C° 0 mm 1 m/S 726 mmHg 58%
    19:00 +10°C° 0 mm 1 m/S 726 mmHg 65%
    20:00 +10°C° 0 mm 1 m/S 726 mmHg 67%
    21:00 +9°C° 0 mm 1 m/S 727 mmHg 69%
    22:00 +9°C° 0 mm 1 m/S 727 mmHg 71%
    23:00 +9°C° 0 mm 1 m/S 727 mmHg 72%
    Mehr zeigen